Showing default

GALILEO 22 (2C8), 43058

Orbit data source: Space-Track

GALILEO 22 (2C8), 43058 is a payload satellite owned by GNSS Agency (ESA) that was launched on Tue, 12 Dec 2017 UTC via an ARIANE 5ES launch vehicle from the French Guiana (FRGUI). Payload-class satellites include a variety of spacecraft equipped with specific instruments for various scientific and technological missions. These include communications satellites like Starlink; space stations such as the ISS; scientific satellites like the Hubble; Earth observation satellites from companies like Planet Labs, Umbra, and HawkEye 360; GPS; miniature CubeSats for education and research; and military/defense satellites.

Loading next visibility...
Identifier
43058, 2017-079D
Orbit
Active
Last TLE update
8 hours ago
Origin
Manufacturer
OHB
Mission
Operational Civil Navigation
Bus & Motor
GALILEOSAT, AOCS
Mass
715 kg wet, 700 kg dry
Launch date (UTC)
2017-12-12 (8 years ago)
Launch vehicle
ARIANE 5ES
Launch site
French Guiana (FRGUI)
Object type
Payload
Rocket body
Debris
Shape & HBR
Box + 2 Pan, 14.71 m
Radar Cross Section
9.223 m², Large (>1 m²)

Expand to show TLE details & history

TLE from 8 hours ago
0 GALILEO 22 (2C8)
1 43058U 17079D   25190.01041209  .00000081  00000-0  00000+0 0  9996
2 43058  55.1834 230.9445 0005119 267.8251  92.2155  1.70474620 47132
Epoch: 2025-07-09T00:14Z
TLE epoch observation values (Epoch: 2025-07-09T00:14:59.604Z)
Latitude
-0.00005°
Longitude
-59.98236°
Altitude
23,222.965 km
Speed
3.67 km/s
True Right ascension
15h 23m 51s
True Declination
0° 00' 00"
Sunlit
Object was in daylight at epoch
Visualization orbit readout
Latitude
-15.16308°
Longitude
130.86338°
Altitude
23,220.363 km
Speed
3.67 km/s
Apparent Right ascension
04h 38m 42s
Apparent Declination
-20° 41' 23"
Sunlit
Object is in daylight
Visualization observer readout
Local Sidereal Time
20:10:37
Azimuth
83.094° E
Elevation
-41.204°
Doppler factor
1
Orbital elements
Apogee altitude
23,237.265 km
Perigee altitude
23,206.961 km
Semi-major axis
29,600.25 km
Eccentricity
0.00051
Inclination
55.1834°
RAAN
230.9445°
Arg. of periapsis
267.8251°
True anomaly
Unknown
Mean anomaly
92.2155°
Eccentric anomaly
Unknown
Mean motion
0.42619 °/min
Orbital period
844.7 mins
BSTAR
0
Loading maneuver chart data...
Loading SW <> Apogee altitude chart data...
Loading historical data...
Loading historical data...
Loading historical data...
Loading historical data...
Loading historical data...
Loading historical data...
Loading historical data...
Other satellites on launch #79 in the year 2017 (2017-12-12 UTC)

GALILEO 22 (2C8) Visibility forecast

Observer location: undefined°, undefined°

Span
Click to sort rows by Start time (UTC) header in descending order
Start Az.
Max El. time (UTC)
Max El. Az.
Max El.
End time (UTC)
End Az.
290 mins2025-07-10 03:11:01.719Z198.723° SSW2025-07-10 06:45:01.719Z311.916° NW44.482°2025-07-10 08:01:01.719Z35.914° NE
|